Tracking 28356 objects as of 8-Dec-2023
HD Live streaming from Space Station
objects crossing your sky now

STARLINK-5065

Track STARLINK-5065 now!
10-day predictions
STARLINK-5065 is classified as:


NORAD ID: 55641
Int'l Code: 2023-021P
Perigee: 577.2 km
Apogee: 581.2 km
Inclination: 70.0 °
Period: 96.1 minutes
Semi major axis: 6950 km
RCS: Unknown
Launch date: February 17, 2023
Source: United States (US)
Launch site: AIR FORCE WESTERN TEST RANGE (AFWTR)
Your satellite tracking list
Your tracking list is empty




NASA's NSSDC Master Catalog

Two Line Element Set (TLE):
1 55641U 23021P   23341.55616302 -.00001622  00000-0 -12814-3 0  9992
2 55641  70.0041  99.8890 0002856 223.5634 136.5300 14.98333553 45498
Source of the keplerian elements: AFSPC